FW0960 Weather Reports


Display with metric or nautical units.
time (UTC)temp
F
wind
direction
speed
MPH
gust
MPH
rain 1hr
in
rain 24hr
in
rain mn
in
humidity
%
barometer
mb
20210513100935 51 211 0.0 1.0 0.00 0.00 0.00 78 1023.0
20210513100431 50 211 0.0 2.0 0.00 0.00 0.00 78 1022.9
20210513095932 51 211 0.0 2.0 0.00 0.00 0.00 79 1023.0
20210513095431 50 211 0.0 2.0 0.00 0.00 0.00 79 1022.8
20210513094931 50 211 0.0 0.0 0.00 0.00 0.00 80 1022.8
20210513094434 51 211 0.0 0.0 0.00 0.00 0.00 79 1022.8
20210513093930 51 211 0.0 0.0 0.00 0.00 0.00 77 1022.8
20210513093430 51 211 0.0 0.0 0.00 0.00 0.00 78 1022.7
20210513092432 51 211 0.0 0.0 0.00 0.00 0.00 80 1022.9
20210513091935 51 211 0.0 0.0 0.00 0.00 0.00 80 1022.7
20210513091430 51 211 0.0 0.0 0.00 0.00 0.00 79 1022.9
20210513090937 51 211 0.0 1.0 0.00 0.00 0.00 78 1022.8
20210513090431 51 211 0.0 1.0 0.00 0.00 0.00 80 1022.7
20210513085432 51 211 0.0 2.0 0.00 0.00 0.00 81 1022.8
20210513084932 50 211 0.0 2.0 0.00 0.00 0.00 84 1022.7
20210513084431 49 211 0.0 2.0 0.00 0.00 0.00 87 1022.7
20210513083931 49 211 0.0 1.0 0.00 0.00 0.00 88 1022.7
20210513083430 49 211 0.0 1.0 0.00 0.00 0.00 89 1022.7
20210513082931 48 211 0.0 1.0 0.00 0.00 0.00 89 1022.7
20210513082430 48 211 0.0 0.0 0.00 0.00 0.00 89 1022.6
20210513081929 48 211 0.0 0.0 0.00 0.00 0.00 89 1022.6
20210513081428 48 211 0.0 0.0 0.00 0.00 0.00 89 1022.6
20210513080929 48 211 0.0 0.0 0.00 0.00 0.00 88 1022.6
20210513075437 48 211 0.0 0.0 0.00 0.00 0.00 87 1022.5
20210513074936 48 211 0.0 0.0 0.00 0.00 0.00 87 1022.5
20210513074429 48 211 0.0 0.0 0.00 0.00 0.00 86 1022.5
20210513073931 48 211 0.0 1.0 0.00 0.00 0.00 86 1022.5
20210513072433 49 211 0.0 1.0 0.00 0.00 0.00 86 1022.4
20210513071431 49 211 0.0 1.0 0.00 0.00 0.00 85 1022.3
20210513070929 49 211 0.0 1.0 0.00 0.00 0.00 84 1022.3
20210513065927 49 211 0.0 1.0 0.00 0.00 0.00 84 1022.4
20210513065428 50 211 0.0 1.0 0.00 0.00 0.00 83 1022.3
20210513064929 50 211 0.0 2.0 0.00 0.00 0.00 82 1022.3
20210513064426 50 211 0.0 2.0 0.00 0.00 0.00 82 1022.4
20210513063930 50 211 0.0 2.0 0.00 0.00 0.00 82 1022.5
20210513063428 50 211 0.0 1.0 0.00 0.00 0.00 82 1022.4
20210513062930 51 211 0.0 1.0 0.00 0.00 0.00 80 1022.4
20210513062428 51 211 0.0 4.0 0.00 0.00 0.00 80 1022.5
20210513061922 51 211 1.0 4.0 0.00 0.00 0.00 79 1022.4
20210513061418 51 211 1.0 4.0 0.00 0.00 0.00 79 1022.5
20210513060918 51 211 1.0 4.0 0.00 0.00 0.00 79 1022.5
20210513060419 51 229 1.0 3.0 0.00 0.00 0.00 79 1022.5
20210513055916 51 229 1.0 3.0 0.00 0.00 0.00 79 1022.5
20210513055417 51 234 0.0 3.0 0.00 0.00 0.00 78 1022.5
20210513054921 52 217 0.0 2.0 0.00 0.00 0.00 78 1022.5
20210513054416 52 218 0.0 2.0 0.00 0.00 0.00 78 1022.5
20210513053912 52 218 0.0 2.0 0.00 0.00 0.00 78 1022.5
20210513052913 52 218 0.0 3.0 0.00 0.00 0.00 77 1022.4
20210513052416 52 218 0.0 2.0 0.00 0.00 0.00 77 1022.5
20210513051918 52 218 0.0 2.0 0.00 0.00 0.00 76 1022.5
20210513051409 52 218 0.0 3.0 0.00 0.00 0.00 76 1022.5
20210513050911 53 221 1.0 3.0 0.00 0.00 0.00 76 1022.5
20210513045909 53 224 1.0 3.0 0.00 0.00 0.00 74 1022.5
20210513045414 53 209 0.0 3.0 0.00 0.00 0.00 74 1022.5
20210513044923 52 210 0.0 2.0 0.00 0.00 0.00 74 1022.4
20210513043905 53 211 0.0 0.0 0.00 0.00 0.00 74 1022.4
20210513043406 53 211 0.0 0.0 0.00 0.00 0.00 74 1022.5
20210513042909 53 211 0.0 0.0 0.00 0.00 0.00 73 1022.5
20210513041903 53 211 0.0 2.0 0.00 0.00 0.00 73 1022.5
20210513040901 53 211 0.0 2.0 0.00 0.00 0.00 74 1022.4
20210513040410 53 214 0.0 0.0 0.00 0.00 0.00 73 1022.4
20210513035403 53 214 0.0 0.0 0.00 0.00 0.00 72 1022.4
20210513034904 53 214 0.0 1.0 0.00 0.00 0.00 72 1022.4
20210513034401 53 214 0.0 1.0 0.00 0.00 0.00 71 1022.3
20210513033901 53 214 0.0 0.0 0.00 0.00 0.00 72 1022.3
20210513033404 53 214 0.0 0.0 0.00 0.00 0.00 72 1022.3
20210513032900 53 214 0.0 1.0 0.00 0.00 0.00 72 1022.4
20210513032402 53 214 0.0 1.0 0.00 0.00 0.00 73 1022.4
20210513031900 53 214 0.0 0.0 0.00 0.00 0.00 74 1022.3
20210513031406 53 214 0.0 0.0 0.00 0.00 0.00 73 1022.3
20210513030902 53 214 0.0 0.0 0.00 0.00 0.00 73 1022.3
20210513030401 53 214 0.0 1.0 0.00 0.00 0.00 73 1022.3
20210513025901 53 214 0.0 1.0 0.00 0.00 0.00 76 1022.3
20210513025405 52 214 0.0 0.0 0.00 0.00 0.00 76 1022.4
20210513024904 53 214 0.0 0.0 0.00 0.00 0.00 77 1022.4
20210513024402 53 214 0.0 0.0 0.00 0.00 0.00 77 1022.4
20210513023900 53 214 0.0 0.0 0.00 0.00 0.00 75 1022.4
20210513022903 53 214 0.0 0.0 0.00 0.00 0.00 76 1022.4
20210513022405 53 214 0.0 0.0 0.00 0.00 0.00 76 1022.5
20210513021900 53 214 0.0 0.0 0.00 0.00 0.00 77 1022.5
20210513021401 53 214 0.0 0.0 0.00 0.00 0.00 75 1022.4
20210513020906 53 214 0.0 0.0 0.00 0.00 0.00 75 1022.5
20210513020405 53 214 0.0 0.0 0.00 0.00 0.00 75 1022.6
20210513015900 53 214 0.0 0.0 0.00 0.00 0.00 73 1022.5
20210513015401 54 214 0.0 0.0 0.00 0.00 0.00 72 1022.5
20210513014901 54 214 0.0 0.0 0.00 0.00 0.00 73 1022.4
20210513014405 54 214 0.0 0.0 0.00 0.00 0.00 76 1022.4
20210513013903 55 214 0.0 0.0 0.00 0.00 0.00 74 1022.4
20210513013402 55 214 0.0 0.0 0.00 0.00 0.00 73 1022.4
20210513012404 55 214 0.0 0.0 0.00 0.00 0.00 72 1022.4
20210513011902 56 214 0.0 0.0 0.00 0.00 0.00 70 1022.5
20210513011402 56 214 0.0 0.0 0.00 0.00 0.00 69 1022.5
20210513010902 56 214 0.0 0.0 0.00 0.00 0.00 70 1022.4
20210513010402 56 214 0.0 0.0 0.00 0.00 0.00 69 1022.4
20210513005902 57 214 0.0 0.0 0.00 0.00 0.00 67 1022.2
20210513005401 57 214 0.0 0.0 0.00 0.00 0.00 66 1022.3
20210513004903 57 214 0.0 0.0 0.00 0.00 0.00 66 1022.3
20210513004403 58 214 0.0 0.0 0.00 0.00 0.00 66 1022.2
20210513003901 58 214 0.0 0.0 0.00 0.00 0.00 64 1022.2
20210513003402 58 214 0.0 0.0 0.00 0.00 0.00 64 1022.2
20210513001901 60 214 0.0 0.0 0.00 0.00 0.00 64 1022.0
20210513001403 60 214 0.0 0.0 0.00 0.00 0.00 60 1021.8
20210513000858 60 214 0.0 0.0 0.00 0.00 0.00 59 1021.8
20210512235852 61 214 0.0 1.0 0.00 0.00 0.00 61 1021.9
20210512235351 61 214 0.0 0.0 0.00 0.00 0.00 57 1021.8
20210512234350 62 214 0.0 2.0 0.00 0.00 0.00 55 1021.7
20210512233847 62 214 0.0 0.0 0.00 0.00 0.00 54 1021.7
20210512233349 62 214 0.0 1.0 0.00 0.00 0.00 53 1021.7
20210512232848 62 214 0.0 1.0 0.00 0.00 0.00 52 1021.6
20210512232344 63 214 0.0 1.0 0.00 0.00 0.00 52 1021.5
20210512231346 63 215 0.0 3.0 0.00 0.00 0.00 50 1021.6
20210512230843 63 215 0.0 3.0 0.00 0.00 0.00 51 1021.6
20210512230343 63 215 0.0 2.0 0.00 0.00 0.00 49 1021.7
20210512225840 63 217 1.0 4.0 0.00 0.00 0.00 49 1021.5
20210512225338 63 227 1.0 4.0 0.00 0.00 0.00 48 1021.5
20210512224841 63 225 0.0 4.0 0.00 0.00 0.00 50 1021.5
20210512224336 63 230 0.0 1.0 0.00 0.00 0.00 49 1021.4
20210512222830 64 200 2.0 5.0 0.00 0.00 0.00 49 1021.7
20210512222330 64 207 2.0 7.0 0.00 0.00 0.00 48 1021.6
20210512221833 64 229 3.0 9.0 0.00 0.00 0.00 49 1021.6
20210512221330 64 153 2.0 9.0 0.00 0.00 0.00 48 1021.8
20210512220823 64 195 2.0 8.0 0.00 0.00 0.00 47 1021.8
20210512215824 64 195 3.0 8.0 0.00 0.00 0.00 50 1021.8
20210512215323 64 202 3.0 8.0 0.00 0.00 0.00 47 1021.7
20210512214827 64 191 4.0 10.0 0.00 0.00 0.00 49 1021.7
20210512214326 63 215 4.0 10.0 0.00 0.00 0.00 48 1021.6
20210512213828 63 186 4.0 10.0 0.00 0.00 0.00 50 1021.5
20210512212820 64 217 4.0 8.0 0.00 0.00 0.00 49 1021.7
20210512212322 64 203 4.0 8.0 0.00 0.00 0.00 49 1021.7
20210512211820 64 194 3.0 8.0 0.00 0.00 0.00 49 1021.7
20210512211320 63 189 3.0 10.0 0.00 0.00 0.00 49 1021.7
20210512210825 63 190 3.0 10.0 0.00 0.00 0.00 46 1021.8
20210512210317 63 210 3.0 9.0 0.00 0.00 0.00 48 1021.7
20210512205815 63 200 4.0 9.0 0.00 0.00 0.00 52 1021.7
20210512205318 63 184 4.0 8.0 0.00 0.00 0.00 49 1021.9
20210512204816 63 171 4.0 8.0 0.00 0.00 0.00 50 1021.9
20210512204316 63 239 4.0 8.0 0.00 0.00 0.00 51 1021.8
20210512203818 63 117 4.0 11.0 0.00 0.00 0.00 48 1021.9
20210512203317 63 190 4.0 11.0 0.00 0.00 0.00 49 1021.9
20210512202818 63 182 3.0 9.0 0.00 0.00 0.00 54 1021.9
20210512202315 63 205 2.0 6.0 0.00 0.00 0.00 50 1021.9
20210512201818 63 204 2.0 10.0 0.00 0.00 0.00 49 1022.0
20210512201319 63 213 3.0 10.0 0.00 0.00 0.00 53 1022.2
20210512200813 62 201 4.0 9.0 0.00 0.00 0.00 53 1022.3
20210512200313 62 215 3.0 8.0 0.00 0.00 0.00 52 1022.3
20210512195815 63 215 3.0 7.0 0.00 0.00 0.00 53 1022.3
20210512195315 62 245 3.0 8.0 0.00 0.00 0.00 52 1022.4
20210512194818 62 206 3.0 8.0 0.00 0.00 0.00 52 1022.4
20210512194314 62 193 3.0 7.0 0.00 0.00 0.00 54 1022.5
20210512193808 62 205 3.0 6.0 0.00 0.00 0.00 53 1022.5
20210512193314 61 198 3.0 7.0 0.00 0.00 0.00 53 1022.4
20210512192806 61 117 4.0 7.0 0.00 0.00 0.00 52 1022.5
20210512192307 61 225 4.0 7.0 0.00 0.00 0.00 55 1022.5
20210512191802 61 181 4.0 8.0 0.00 0.00 0.00 54 1022.6
20210512190801 60 232 2.0 6.0 0.00 0.00 0.00 57 1022.6
20210512185803 60 205 3.0 6.0 0.00 0.00 0.00 57 1022.6
20210512185310 60 202 3.0 7.0 0.00 0.00 0.00 54 1022.8
20210512184803 59 196 3.0 7.0 0.00 0.00 0.00 61 1022.7
20210512184253 59 211 2.0 6.0 0.00 0.00 0.00 53 1022.7
20210512183754 59 209 1.0 6.0 0.00 0.00 0.00 53 1022.8
20210512183252 59 150 2.0 6.0 0.00 0.00 0.00 54 1022.8
20210512182752 59 182 3.0 7.0 0.00 0.00 0.00 58 1023.0
20210512181751 59 212 2.0 4.0 0.00 0.00 0.00 60 1023.0
20210512181247 59 218 1.0 4.0 0.00 0.00 0.00 52 1022.9
20210512180745 59 95 1.0 5.0 0.00 0.00 0.00 52 1023.1
20210512180239 58 92 2.0 5.0 0.00 0.00 0.00 52 1023.1
20210512175737 58 207 2.0 5.0 0.00 0.00 0.00 58 1023.1
20210512175239 58 234 2.0 5.0 0.00 0.00 0.00 50 1023.2
20210512174735 58 98 1.0 4.0 0.00 0.00 0.00 50 1023.4
20210512174236 58 115 2.0 8.0 0.00 0.00 0.00 50 1023.3
20210512173733 58 202 3.0 10.0 0.00 0.00 0.00 51 1023.2
20210512173232 58 149 3.0 10.0 0.00 0.00 0.00 49 1023.4
20210512172730 58 113 2.0 7.0 0.00 0.00 0.00 53 1023.3
20210512172232 58 80 3.0 7.0 0.00 0.00 0.00 50 1023.5
20210512171229 58 188 1.0 7.0 0.00 0.00 0.00 51 1023.6
20210512170728 57 91 1.0 6.0 0.00 0.00 0.00 53 1023.5
20210512165728 57 180 1.0 3.0 0.00 0.00 0.00 52 1023.6
20210512165227 57 210 1.0 6.0 0.00 0.00 0.00 53 1023.6
20210512164726 56 209 3.0 7.0 0.00 0.00 0.00 52 1023.7
20210512164220 56 187 3.0 8.0 0.00 0.00 0.00 50 1023.9
20210512163719 56 219 2.0 8.0 0.00 0.00 0.00 51 1023.9
20210512163222 56 190 1.0 7.0 0.00 0.00 0.00 50 1024.0
20210512162719 56 161 2.0 7.0 0.00 0.00 0.00 50 1024.0
20210512162220 56 214 3.0 7.0 0.00 0.00 0.00 51 1024.1
20210512161719 56 86 3.0 7.0 0.00 0.00 0.00 52 1024.0
20210512160716 56 203 2.0 6.0 0.00 0.00 0.00 57 1024.2
20210512160216 55 161 2.0 8.0 0.00 0.00 0.00 52 1024.3
20210512155713 55 194 2.0 8.0 0.00 0.00 0.00 52 1024.2
20210512155214 55 113 2.0 7.0 0.00 0.00 0.00 56 1024.2
20210512154714 55 100 1.0 7.0 0.00 0.00 0.00 52 1024.1
20210512154215 55 128 2.0 7.0 0.00 0.00 0.00 54 1024.1
20210512153711 54 137 2.0 7.0 0.00 0.00 0.00 52 1024.4
20210512152716 54 92 2.0 7.0 0.00 0.00 0.00 53 1024.4
20210512152212 54 210 2.0 5.0 0.00 0.00 0.00 54 1024.2
20210512151707 54 214 2.0 6.0 0.00 0.00 0.00 58 1024.2
20210512151211 54 284 2.0 7.0 0.00 0.00 0.00 54 1024.3
20210512150705 54 214 3.0 7.0 0.00 0.00 0.00 52 1024.4
20210512150202 54 202 3.0 9.0 0.00 0.00 0.00 54 1024.1
20210512145701 53 211 2.0 9.0 0.00 0.00 0.00 58 1024.2
20210512145203 53 192 2.0 8.0 0.00 0.00 0.00 56 1024.2
20210512144701 53 200 3.0 7.0 0.00 0.00 0.00 56 1024.1
20210512144203 53 206 3.0 9.0 0.00 0.00 0.00 57 1024.1
20210512143701 53 217 3.0 9.0 0.00 0.00 0.00 57 1024.1
20210512143201 53 224 3.0 7.0 0.00 0.00 0.00 54 1024.2
20210512142701 53 230 4.0 8.0 0.00 0.00 0.00 56 1024.2
20210512142206 53 288 3.0 8.0 0.00 0.00 0.00 54 1024.1
20210512141702 53 203 3.0 8.0 0.00 0.00 0.00 57 1024.0
20210512141203 53 219 3.0 8.0 0.00 0.00 0.00 57 1024.1
20210512140705 52 215 4.0 9.0 0.00 0.00 0.00 55 1024.0
20210512140157 52 218 4.0 10.0 0.00 0.00 0.00 55 1024.0
20210512135658 52 207 4.0 10.0 0.00 0.00 0.00 54 1024.0
20210512135158 52 204 3.0 7.0 0.00 0.00 0.00 53 1024.4
20210512134659 52 208 4.0 8.0 0.00 0.00 0.00 55 1023.8
20210512134156 52 216 4.0 12.0 0.00 0.00 0.00 52 1024.0
20210512133658 52 207 5.0 12.0 0.00 0.00 0.00 54 1024.0
20210512133149 52 215 5.0 10.0 0.00 0.00 0.00 53 1023.9
20210512132649 52 212 5.0 10.0 0.00 0.00 0.00 53 1023.8
20210512132151 52 215 5.0 10.0 0.00 0.00 0.00 52 1023.5
20210512131651 52 229 4.0 10.0 0.00 0.00 0.00 55 1023.6
20210512131149 52 181 4.0 10.0 0.00 0.00 0.00 53 1023.5
20210512130651 52 197 2.0 10.0 0.00 0.00 0.00 56 1023.6
20210512130140 51 192 2.0 12.0 0.00 0.00 0.00 54 1023.6
20210512125642 51 128 4.0 12.0 0.00 0.00 0.00 54 1023.5
20210512124647 51 202 4.0 13.0 0.00 0.00 0.00 53 1023.5
20210512124142 51 225 4.0 9.0 0.00 0.00 0.00 56 1023.7
20210512123648 51 209 4.0 9.0 0.00 0.00 0.00 57 1023.7
20210512123137 51 209 4.0 10.0 0.00 0.00 0.00 54 1023.8
20210512122636 51 208 4.0 10.0 0.00 0.00 0.00 53 1023.8
20210512122135 51 224 4.0 11.0 0.00 0.00 0.00 55 1023.8
20210512121635 51 233 4.0 11.0 0.00 0.00 0.00 53 1023.8
20210512121137 51 101 5.0 9.0 0.00 0.00 0.00 54 1023.6
20210512120637 51 230 4.0 9.0 0.00 0.00 0.00 55 1023.8
20210512120133 51 211 4.0 8.0 0.00 0.00 0.00 54 1023.8
20210512115631 51 207 4.0 8.0 0.00 0.00 0.00 54 1023.7
20210512115136 50 196 4.0 12.0 0.00 0.00 0.00 55 1023.6
20210512114634 50 189 4.0 12.0 0.00 0.00 0.00 54 1023.7
20210512114135 50 181 4.0 8.0 0.00 0.00 0.00 54 1023.8
20210512113631 50 165 4.0 8.0 0.00 0.00 0.00 54 1023.7
20210512113132 50 211 4.0 9.0 0.00 0.00 0.00 54 1023.8
20210512112630 50 213 4.0 9.0 0.00 0.00 0.00 54 1023.6
20210512112134 50 192 4.0 8.0 0.00 0.00 0.00 51 1023.7
20210512111629 50 217 4.0 11.0 0.00 0.00 0.00 51 1023.9
20210512110628 50 199 4.0 10.0 0.00 0.00 0.00 54 1023.8
20210512110131 50 82 3.0 9.0 0.00 0.00 0.00 52 1023.7
20210512105632 50 192 4.0 10.0 0.00 0.00 0.00 53 1023.7
20210512105129 50 224 4.0 10.0 0.00 0.00 0.00 53 1023.6
20210512104629 50 213 4.0 8.0 0.00 0.00 0.00 55 1023.6
20210512104132 50 209 4.0 8.0 0.00 0.00 0.00 53 1023.5
20210512103642 50 215 4.0 11.0 0.00 0.00 0.00 52 1023.4
20210512103132 50 172 4.0 11.0 0.00 0.00 0.00 50 1023.5
20210512102629 50 220 4.0 10.0 0.00 0.00 0.00 50 1023.3
20210512102129 50 200 4.0 10.0 0.00 0.00 0.00 48 1023.3
20210512101630 50 197 4.0 9.0 0.00 0.00 0.00 49 1023.0
20210512101129 51 192 4.0 9.0 0.00 0.00 0.00 49 1023.0